Regional Weather Roundup
Issued by NWS Wakefield, VA

Home | Current Version | Previous Version | Graphics & Text | Print | Product List | Glossary On
Versions: 1 2 3 4 5 6 7 8 9 10 11 12 13 14 15 16 17 18 19 20 21 22 23 24 25 26 27 28 29 30 31 32 33 34 35 36 37 38 39 40 41 42 43 44 45 46 47 48 49 50
000
ASUS41 KAKQ 310815
RWRAKQ

REGIONAL WEATHER ROUNDUP
NATIONAL WEATHER SERVICE WAKEFIELD VA
400 AM EDT FRI JUL 31 2015

Note: "fair" indicates few or no clouds below 12,000 feet with no
significant weather and/or obstructions to visibility. * = Denotes
station may not report precipitation (e.g., rain,snow,etc.),
thunder or fog.

VAZ042-051-052>054-056-310900-
NORTHERN VIRGINIA

CITY           SKY/WX    TMP DP  RH WIND       PRES   REMARKS
WASH NATIONAL  CLEAR     76  62  62 NW8       29.92R
DULLES         CLEAR     65  61  87 CALM      29.94R
FORT BELVOIR   CLEAR     68  67  96 CALM      29.92R
QUANTICO       NOT AVBL
FREDERICKSBRG* CLEAR     71  70  98 NW5       29.91S
STAFFORD*      CLEAR     67  60  78 NW6       29.96S
WARRENTON      CLEAR     64  64 100 CALM      29.93R
CULPEPER*      CLEAR     65  64  94 CALM      29.95R
MANASSAS*      CLEAR     66  66 100 SE3       29.93S
LEESBURG*      CLEAR     70  63  78 NW6       29.95R
WINCHESTER     CLEAR     68  59  73 NW8       29.96S
FRONT ROYAL*   FAIR      63  61  94 CALM      29.96R
LURAY*         FAIR      64  61  88 SE3       29.98S
$$

VAZ048-049-060>072-079>083-310900-
CENTRAL AND SOUTH CENTRAL VIRGINIA

CITY           SKY/WX    TMP DP  RH WIND       PRES   REMARKS
RICHMOND       PTCLDY    76  71  85 N3        29.90S
CHESTERFIELD*  CLOUDY    72  61  68 NW5       29.92S
PETERSBURG*    MOCLDY    76  76 100 CALM      29.91S
HANOVER        PTCLDY    71  70  96 CALM      29.92S
TAPPAHANNOCK*  CLEAR     73  70  91 CALM      29.91S FOG
QUINTON*       CLOUDY    73  67  81 CALM      29.90S
CHARLOTTSVILLE CLEAR     65  63  93 CALM      29.95S
GORDONSVILLE*  FAIR      64  63  94 CALM      29.94S
ORANGE*        CLEAR     70  64  83 CALM      29.96R
LOUISA*          N/A     66  64  94 CALM      29.93S FOG
BUMPASS*       FAIR      70  68  94 N3        29.92S
FARMVILLE*     MOCLDY    72  72  99 CALM      29.93S
CREWE*         CLOUDY   N/A N/A N/A CALM      29.92S
FORT PICKETT*  PTSUNNY   73  72  98 N5        29.92S
CHASE CITY*    FAIR      75  73  95 NW3       29.93R
CLARKSVILLE*   FAIR      73  70  88 N6        29.92R
SOUTH HILL*    PTCLDY    74  73  96 N7        29.97R
LAWRENCEVILLE* PTSUNNY   73  73 100 N3        29.91R
EMPORIA*       CLOUDY    73  73 100 NW3       29.91R
$$

VAZ088>098-310900-
SOUTHEAST VIRGINIA

CITY           SKY/WX    TMP DP  RH WIND       PRES   REMARKS
NORFOLK        HVY RAIN  77  73  87 NE17      29.89R FOG
VIRGINIA BEACH CLOUDY    81  75  82 NW5       29.87S
NORFOLK NAVAL  TSTM      76  75  97 VRB7      29.91R FOG
WEST POINT*    CLOUDY    76  73  91 CALM      29.91S
SALUDA*        CLOUDY    74  73  99 CALM      29.89S
NEWPORT NEWS   HVY RAIN  74  70  87 NE10G22   29.90R FOG
LANGLEY AFB    LGT RAIN  77  75  94 NW8       29.90R
FORT EUSTIS    MOCLDY    74  74 100 E6        29.87S
WILLIAMSBURG*  CLOUDY    77  75  94 CALM      29.91R
HR EXEC AP*    CLOUDY    75  72  88 CALM      29.91R THUNDER
FRANKLIN*      CLOUDY    77  74  88 N13G20    29.90R
WAKEFIELD      CLOUDY    73  69  87 E3        29.90S
$$

VAZ020-022-025-037-045-310900-
WEST CENTRAL AND SOUTHWEST VIRGINIA

CITY           SKY/WX    TMP DP  RH WIND       PRES   REMARKS
STAUNTON*      CLEAR     63  61  92 CALM      30.03S
WAYNESBORO*    FAIR      61  60  96 CALM      30.01F
HOT SPRINGS VA CLEAR     62  56  79 NW10      30.11S
LYNCHBURG      PTCLDY    72  58  61 NW5       29.97F
DANVILLE       PTCLDY    73  62  68 NW7       29.94F
SOUTH BOSTON*  FAIR      70  66  88 N3        29.94R
MARTINSVILLE   CLEAR     68  59  73 N3        30.00S
ROANOKE        CLEAR     66  58  75 W7        30.02F
BLACKSBURG     CLEAR     61  59  94 CALM      30.09S
DUBLIN*          N/A     66  59  78 CALM      30.08F
MARION*        CLEAR     61  59  94 CALM      30.13S
HILLSVILLE*    PTCLDY    65  58  78 NW9       30.08F
RICHLANDS*     FAIR      61  61  99 CALM      30.12S
WISE*          MOCLDY    63  61  94 CALM      30.14S
ABINGDON*      CLEAR     63  60  90 CALM      30.09S
$$

MDZ021>025-VAZ099-100-310900-
SOUTHERN MARYLAND AND THE DELMARVA PENINSULA

CITY           SKY/WX    TMP DP  RH WIND       PRES   REMARKS
PATUXENT RIVER CLEAR     74  72  93 W5        29.89S
BAY BRIDGE APT   N/A     77  64  65 N6        29.90S
LEONARDTOWN    CLEAR     72  68  88 CALM      29.92R
DOVER          CLEAR     73  72  97 NW10      29.87R
GEORGETOWN     CLOUDY    74  73  97 W3        29.89S FOG
EASTON         FOG       72  72 100 CALM      29.93S VSB 1/2
CAMBRIDGE      MOCLDY    72  70  94 CALM      29.89S
SALISBURY      PTCLDY    75  74  96 NW3       29.89R
OCEAN CITY     MOCLDY    75  74  96 NW5       29.88S
WALLOPS ISLAND CLOUDY    75  75 100 CALM      29.89S
ACCOMACK*      LGT RAIN  73  21  14 E5        29.88F
$$

NCZ012>017-030>032-310900-
NORTH CENTRAL AND EASTERN NORTH CAROLINA

CITY           SKY/WX    TMP DP  RH WIND       PRES   REMARKS
ROANOKE RAPIDS FAIR      75  72  88 N6        29.89R
RALEIGH        MOCLDY    77  66  68 N5        29.91S
ELIZABETH CITY PTCLDY    77  75  93 CALM      29.87F
AHOSKIE*       MOCLDY    76  74  92 CALM      29.88S
EDENTON*         N/A     80  74  84 CALM      29.87S
CURRITUCK*     CLEAR     78  74  88 CALM      29.88S
KILL DEVIL HLS CLEAR     79  74  85 CALM      29.87S
MANTEO         PTCLDY    79  75  87 W3        29.88S
CAPE HATTERAS  PTCLDY    80  76  87 S5        29.86F
TARBORO*         N/A     76  74  93 N3        29.89R
GOLDSBORO      PTCLDY    78  76  92 W5        29.85F
WASHINGTON     PTCLDY    76  74  94 CALM      29.88S
GREENVILLE     MOCLDY    77  77 100 CALM      29.90S
NEW BERN       CLEAR     75  72  90 CALM      29.88S
WILMINGTON     CLEAR     77  75  93 CALM      29.86F
$$

VAZ048-310900-
ELSEWHERE

CITY           SKY/WX    TMP DP  RH WIND       PRES   REMARKS
HARRISBURG PA  PTCLDY    68  60  75 NW5       29.90S
BALTIMORE      PTCLDY    68  64  87 CALM      29.90R
ANNAPOLIS      CLEAR     76  67  73 VRB3      29.89S
ANDREWS AFB    CLEAR     73  64  73 NW6       29.91S
PHILADELPHIA   CLEAR     74  63  68 NW9       29.88R
HENDERSON NC   PTCLDY    74  69  83 N7        29.93R
GREENSBORO     PTCLDY    73  61  65 N5        29.96F
ROCKY MOUNT    PTCLDY    78  75  90 W5        29.88S
$$

VAZ100-310900-
MARINE

STATION/POSITION TIME  TEMP    WIND        PRES    WAVE   SWELL
                       AIR SEA DIR/SP/G            HT/PER HT/PER
                 (UTC) (F)     (DEG/KT/KT) (MB)    (FT/S) (FT/S)
BRANDYWINE LGT   0700   76 77  310/ 11/ 13 1011.7R
CAPE MAY NJ      0700   75 79  220/  3/  4 1011.1R
LEWES DE         0700   75 73  220/  3/  4 1011.4R
15NM E FENWICK I 0750   78 79  250/  6/  8 1011.8R   3/ 6   3/ 6
OCEAN-CITY-INLET 0700   76 75  310/  2/  4 1010.8S
GOOSES REEF MD   0800   80 82  340/ 14/ 16 1013.2R
COVE POINT MD    0700   77     340/  6/  9 1012.9R
SOLOMONS ISLAND  0700      82                N/A
BISHOPS HEAD MD  0700   80 83  310/  8/  9 1011.1R
PINEY POINT MD   0700          330/  9/ 10   N/A
POTOMAC MD       0800   79 83  310/  6/  8 1011.0S   0
CAMBRIDGE MD     0700   77 83  270/  4/  7 1011.2R
LEWISETTA VA     0700   76 83  270/  3/  4 1011.9R
RAPPAHANNOCK LGT 0700           40/  7/  8 1013.0R
STINGRAY PT      0800   79 83  120/  2/  4 1012.3R   0
YORK RVR RNG VA  0700   78     350/ 12/ 15 1011.4R
YORKTOWN VA      0700   77 83  340/  6/  7 1011.9S
JAMESTOWN VA     0800   76 85   90/  4/  4   N/A
DOMINION TERM VA 0700   78     360/  9/ 12 1011.8R
KIPTOPEKE VA     0700      82   50/  9/ 14   N/A
CHES BAY BRIDGE  0700   81 81  250/  9/ 11 1011.4R
CAPE HENRY VA    0700   80     230/  7/  9   N/A
CHESAPEAKE LGHT  0700   80     230/ 10/ 11 1012.2R
WILLOUBY STN VA  0700   78      10/  9/ 14 1012.8R
CAPE HENRY BUOY  0728      81                N/A     3/ 6
1ST LANDING BUOY 0800      79              1011.8R   2/ 4
CAPE CHARLES BUO 0726      78                N/A     3/10   2/10
OFFSHORE WE BUOY 0711      82                N/A     4/ 6   3/ 6
64NM E OF VA BCH 0750   81 81  210/ 12/ 14 1011.3F   4/ 6   3/ 6
DUCK PIER NC     0700   80 63  220/  6/  9 1011.0R
44100 DUCK FRF   0724      80                N/A     3/ 9
44056 DUCK FRF   0711      70                N/A     2/ 9
OREGON INLET NC  0700   82 83  180/ 11/ 14 1011.5F
HATTERAS NC      0700   81 83  160/  3/  5 1011.3F
DIAMOND SHLS NC  0750   83 85  180/  8/ 10 1011.4F   5/ 7   5/ 7
CAPE LOOKOUT NC  0800   80     310/  2/  3 1010.8F
$$


USA.gov is the U.S. government's official web portal to all federal, state and local government web resources and services.